Weather History for Las Cruces, NM

Change the Weather History Date:

Monday, January 28, 2013

  Actual Average Record
Temperature  
Mean Temperature 49 °F -  
Max Temperature 61 °F 55 °F 73 °F (2003)
Min Temperature 37 °F 31 °F 21 °F (2009)
Degree Days  
Heating Degree Days 16    
Moisture  
Dew Point 34 °F    
Average Humidity 61    
Maximum Humidity 90    
Minimum Humidity 29    
Precipitation  
Precipitation 0.00 in - - ()
Sea Level Pressure  
Sea Level Pressure 29.93 in    
Wind  
Wind Speed 10 mph (WSW)    
Max Wind Speed 31 mph    
Max Gust Speed 40 mph    
Visibility 10 miles    
Events      
Averages and records for this station are not official NWS values.
T = Trace of Precipitation, MM = Missing Value Source: NWS Daily Summary

Daily Weather History Graph

Daily Weather History Graph

Search for Another Location

Airport:

Trip Planner

Search our weather history database for the weather conditions in past years. The results will help you decide how hot, cold, wet, or windy it might be!

Date:

Astronomy

Jan. 28, 2013 Rise Set
Actual Time 7:03 AM MST 5:37 PM MST
Civil Twilight 6:38 AM MST 6:03 PM MST
Nautical Twilight 6:08 AM MST 6:33 PM MST
Astronomical Twilight 5:39 AM MST 7:02 PM MST
Moon 7:25 PM MST (1/28) 7:39 AM MST (1/28)
Length of Visible Light 11h 25m
Length of Day
10h 33m
Full, 97% of the Moon is Illuminated
Jan 28
Full
Feb 3
Last Quarter
Feb 10
New
Feb 17
First Quarter
Feb 25
Full

Hourly Weather History & Observations

Time (MST) Temp. Windchill Dew Point Humidity Pressure Visibility Wind Dir Wind Speed Gust Speed Precip Events Conditions
12:15 AM 39.9 °F 37.8 °F 35.6 °F 85% 30.01 in 10.0 mi WSW 3.5 mph - N/A   Clear
12:35 AM 39.0 °F 36.8 °F 34.5 °F 84% 30.01 in 10.0 mi West 3.5 mph - N/A   Clear
12:55 AM 39.9 °F - 36.5 °F 88% 30.01 in 10.0 mi Calm Calm - N/A   Clear
1:15 AM 38.8 °F - 35.4 °F 88% 30.01 in 10.0 mi Calm Calm - N/A   Clear
1:35 AM 38.5 °F 35.0 °F 35.8 °F 90% 30.00 in 10.0 mi WSW 4.6 mph - N/A   Clear
1:55 AM 38.7 °F - 35.6 °F 89% 30.00 in 10.0 mi Calm Calm - N/A   Clear
2:15 AM 38.5 °F 33.4 °F 35.8 °F 90% 29.99 in 10.0 mi West 6.9 mph - N/A   Clear
2:35 AM 39.7 °F 35.6 °F 36.0 °F 86% 29.99 in 10.0 mi West 5.8 mph - N/A   Clear
2:55 AM 39.7 °F 37.6 °F 36.0 °F 86% 29.99 in 10.0 mi WSW 3.5 mph - N/A   Clear
3:15 AM 37.9 °F - 34.9 °F 89% 29.99 in 10.0 mi Calm Calm - N/A   Clear
3:35 AM 39.0 °F - 36.3 °F 90% 29.99 in 10.0 mi Calm Calm - N/A   Clear
3:55 AM 39.9 °F - 36.3 °F 87% 29.99 in 10.0 mi Calm Calm - N/A   Clear
4:15 AM 38.5 °F 36.1 °F 34.9 °F 87% 29.98 in 10.0 mi WSW 3.5 mph - N/A   Clear
4:35 AM 38.1 °F 32.3 °F 35.1 °F 89% 29.98 in 10.0 mi WSW 8.1 mph - N/A   Clear
4:55 AM 37.4 °F 31.4 °F 34.2 °F 88% 29.97 in 10.0 mi West 8.1 mph - N/A   Clear
5:15 AM 37.4 °F 30.8 °F 34.2 °F 88% 29.97 in 10.0 mi West 9.2 mph - N/A   Clear
5:35 AM 38.5 °F 31.1 °F 35.8 °F 90% 29.97 in 10.0 mi West 11.5 mph - N/A   Clear
5:55 AM 39.6 °F 33.5 °F 36.0 °F 87% 29.98 in 10.0 mi WSW 9.2 mph - N/A   Clear
6:15 AM 39.7 °F 33.2 °F 36.1 °F 87% 29.98 in 10.0 mi WSW 10.4 mph - N/A   Clear
6:35 AM 41.2 °F 35.5 °F 36.9 °F 85% 29.98 in 10.0 mi West 9.2 mph - N/A   Clear
6:55 AM 39.2 °F 33.6 °F 35.8 °F 88% 29.99 in 10.0 mi West 8.1 mph - N/A   Clear
7:15 AM 37.6 °F 31.6 °F 34.9 °F 90% 29.99 in 10.0 mi West 8.1 mph - N/A   Clear
7:35 AM 37.9 °F 34.4 °F 34.9 °F 89% 29.99 in 10.0 mi West 4.6 mph - N/A   Clear
7:55 AM 41.7 °F 36.7 °F 36.9 °F 83% 29.99 in 10.0 mi WSW 8.1 mph - N/A   Clear
8:15 AM 43.7 °F 39.1 °F 37.9 °F 80% 30.00 in 10.0 mi WSW 8.1 mph - N/A   Clear
8:35 AM 48.0 °F - 39.2 °F 72% 30.00 in 10.0 mi WSW 8.1 mph - N/A   Clear
8:55 AM 50.0 °F - 39.9 °F 68% 30.00 in 10.0 mi SW 5.8 mph - N/A   Clear
9:15 AM 51.4 °F - 39.7 °F 64% 30.00 in 10.0 mi SW 8.1 mph - N/A   Clear
9:35 AM 53.8 °F - 39.6 °F 59% 29.99 in 10.0 mi WSW 9.2 mph - N/A   Clear
9:55 AM 54.9 °F - 39.4 °F 56% 29.99 in 10.0 mi SW 15.0 mph 20.7 mph N/A   Clear
10:15 AM 55.9 °F - 37.8 °F 51% 30.00 in 10.0 mi SW 16.1 mph - N/A   Clear
10:35 AM 56.5 °F - 37.2 °F 49% 29.99 in 10.0 mi WSW 18.4 mph 26.5 mph N/A   Clear
10:55 AM 57.7 °F - 34.7 °F 42% 29.99 in 10.0 mi SW 18.4 mph 26.5 mph N/A   Scattered Clouds
11:15 AM 58.6 °F - 32.0 °F 37% 29.99 in 10.0 mi SW 25.3 mph 29.9 mph N/A   Scattered Clouds
11:35 AM 58.3 °F - 32.0 °F 37% 29.98 in 10.0 mi WSW 19.6 mph 28.8 mph N/A   Scattered Clouds
11:55 AM 57.0 °F - 32.0 °F 39% 29.96 in 10.0 mi SW 23.0 mph 31.1 mph N/A   Scattered Clouds
12:15 PM 59.2 °F - 31.5 °F 35% 29.95 in 10.0 mi SW 20.7 mph 29.9 mph N/A   Scattered Clouds
12:35 PM 60.1 °F - 31.3 °F 34% 29.93 in 10.0 mi SW 27.6 mph 33.4 mph N/A   Scattered Clouds
12:55 PM 59.2 °F - 30.4 °F 34% 29.92 in 10.0 mi SW 19.6 mph 32.2 mph N/A   Scattered Clouds
1:15 PM 59.7 °F - 32.0 °F 35% 29.91 in 10.0 mi WSW 21.9 mph 27.6 mph N/A   Scattered Clouds
1:35 PM 60.6 °F - 31.5 °F 33% 29.90 in 10.0 mi WSW 20.7 mph 27.6 mph N/A   Scattered Clouds
1:55 PM 61.0 °F - 31.3 °F 33% 29.89 in 10.0 mi WSW 21.9 mph 32.2 mph N/A   Scattered Clouds
2:15 PM 60.4 °F - 31.6 °F 34% 29.88 in 10.0 mi WSW 20.7 mph 26.5 mph N/A   Clear
2:35 PM 61.0 °F - 31.6 °F 33% 29.88 in 10.0 mi WSW 18.4 mph 23.0 mph N/A   Clear
2:55 PM 60.8 °F - 31.6 °F 33% 29.88 in 10.0 mi SW 18.4 mph 25.3 mph N/A   Clear
3:15 PM 59.5 °F - 31.8 °F 35% 29.87 in 10.0 mi WSW 18.4 mph 29.9 mph N/A   Clear
3:35 PM 60.1 °F - 31.6 °F 34% 29.87 in 10.0 mi WSW 23.0 mph 27.6 mph N/A   Mostly Cloudy
3:55 PM 59.7 °F - 31.5 °F 34% 29.86 in 10.0 mi WSW 18.4 mph 24.2 mph N/A   Mostly Cloudy
4:15 PM 60.3 °F - 30.6 °F 33% 29.86 in 10.0 mi WSW 20.7 mph 26.5 mph N/A   Mostly Cloudy
4:35 PM 59.4 °F - 27.3 °F 29% 29.85 in 7.0 mi SW 31.1 mph 36.8 mph N/A   Scattered Clouds
4:55 PM 59.7 °F - 27.3 °F 29% 29.85 in 7.0 mi SW 27.6 mph 40.3 mph N/A   Clear
5:15 PM 58.8 °F - 26.8 °F 29% 29.85 in 10.0 mi WSW 28.8 mph 35.7 mph N/A   Clear
5:35 PM 57.2 °F - 27.7 °F 32% 29.86 in 10.0 mi WSW 25.3 mph 38.0 mph N/A   Clear
5:55 PM 56.1 °F - 28.0 °F 34% 29.86 in 10.0 mi WSW 20.7 mph 26.5 mph N/A   Clear
6:15 PM 55.0 °F - 28.2 °F 36% 29.86 in 10.0 mi WSW 20.7 mph 24.2 mph N/A   Clear
6:35 PM 54.7 °F - 28.4 °F 36% 29.86 in 10.0 mi WSW 16.1 mph - N/A   Scattered Clouds
6:55 PM 53.2 °F - 31.5 °F 43% 29.88 in 10.0 mi West 19.6 mph 25.3 mph N/A   Mostly Cloudy
7:15 PM 51.6 °F - 32.0 °F 47% 29.87 in 10.0 mi West 21.9 mph 25.3 mph N/A   Scattered Clouds
7:35 PM 50.5 °F - 32.2 °F 49% 29.87 in 10.0 mi West 17.3 mph 23.0 mph N/A   Scattered Clouds
7:55 PM 49.5 °F - 34.5 °F 56% 29.88 in 10.0 mi West 18.4 mph 24.2 mph N/A   Scattered Clouds
8:15 PM 48.4 °F - 35.1 °F 60% 29.88 in 10.0 mi West 16.1 mph 24.2 mph N/A   Scattered Clouds
8:35 PM 47.3 °F - 35.2 °F 63% 29.87 in 10.0 mi West 15.0 mph 23.0 mph N/A   Mostly Cloudy
8:55 PM 46.4 °F 40.4 °F 35.1 °F 65% 29.87 in 10.0 mi West 13.8 mph 23.0 mph N/A   Overcast
9:15 PM 45.7 °F 41.0 °F 35.1 °F 66% 29.87 in 10.0 mi West 9.2 mph - N/A   Mostly Cloudy
9:35 PM 44.4 °F 40.0 °F 34.9 °F 69% 29.87 in 10.0 mi West 8.1 mph - N/A   Scattered Clouds
9:55 PM 44.1 °F 38.1 °F 34.9 °F 70% 29.88 in 10.0 mi West 11.5 mph 16.1 mph N/A   Mostly Cloudy
10:15 PM 43.2 °F 36.2 °F 34.7 °F 72% 29.88 in 10.0 mi West 13.8 mph 19.6 mph N/A   Mostly Cloudy
10:35 PM 42.8 °F 34.8 °F 34.2 °F 72% 29.88 in 10.0 mi West 17.3 mph 23.0 mph N/A   Mostly Cloudy
10:55 PM 43.3 °F 35.0 °F 33.4 °F 68% 29.88 in 10.0 mi West 19.6 mph 26.5 mph N/A   Overcast
11:15 PM 42.6 °F 34.9 °F 32.9 °F 68% 29.88 in 10.0 mi West 16.1 mph 24.2 mph N/A   Overcast
11:35 PM 41.9 °F 34.3 °F 32.0 °F 68% 29.88 in 10.0 mi West 15.0 mph - N/A   Mostly Cloudy
11:55 PM 41.9 °F 32.8 °F 31.8 °F 67% 29.88 in 10.0 mi West 20.7 mph 25.3 mph N/A   Mostly Cloudy